Location: Kitchener
(43.4500°N, 80.5000°W)
Time: 06:49:39
(UTC-04:00)

ATLAS 5 CENTAUR R/B - Visible Passes

Search period start: 24 July 2017 00:00
Search period end: 03 August 2017 00:00
Orbit: 627 x 1033 km, 63.4° (Epoch: 21 July)

Date Brightness Start Highest point End Pass type
(mag) Time Alt. Az. Time Alt. Az. Time Alt. Az.
24 Jul 4.4 00:55:57 10° W 00:58:57 14° WSW 00:59:24 14° WSW visible
24 Jul 2.4 22:49:58 10° NW 22:55:59 79° SW 22:59:28 29° SSE visible
25 Jul 4.4 00:36:44 10° WNW 00:40:02 15° WSW 00:41:01 14° WSW visible
25 Jul 2.4 22:31:00 10° NW 22:37:00 83° SW 22:41:08 24° SSE visible
26 Jul 4.4 00:17:33 10° WNW 00:21:06 16° WSW 00:22:41 15° SW visible
26 Jul 2.4 22:12:03 10° NW 22:18:02 87° SW 22:22:52 19° SSE visible
26 Jul 4.4 23:58:24 10° WNW 00:02:11 17° WSW 00:04:25 14° SW visible
27 Jul 2.5 21:53:05 10° NW 21:59:04 89° NE 22:04:39 15° SE visible
27 Jul 4.4 23:39:15 10° WNW 23:43:15 18° WSW 23:46:13 13° SW visible
28 Jul 2.5 21:34:07 10° NW 21:40:06 85° NE 21:46:30 11° SE visible
28 Jul 4.4 23:20:08 10° WNW 23:24:19 19° WSW 23:28:04 12° SSW visible
29 Jul 2.5 21:15:08 10° NW 21:21:07 81° NE 21:27:41 10° SE visible
29 Jul 4.3 23:01:01 10° WNW 23:05:23 20° WSW 23:09:58 10° SSW visible
30 Jul 4.3 22:41:55 10° WNW 22:46:28 22° WSW 22:51:13 10° SSW visible
31 Jul 4.3 22:22:51 10° WNW 22:27:32 23° WSW 22:32:27 10° SSW visible
01 Aug 4.3 22:03:47 10° WNW 22:08:35 24° WSW 22:13:40 10° SSW visible
02 Aug 4.3 21:44:43 10° WNW 21:49:39 26° WSW 21:54:51 10° SSW visible
